Miscellaneous Local Product
Issued by NWS North Platte, NE

Home | Current Version | Previous Version | Graphics & Text | Print | Product List | Glossary On
Versions: 1 2 3 4 5 6 7 8 9 10 11 12 13 14 15 16 17 18 19 20 21 22 23 24 25 26 27 28 29 30 31 32 33 34 35 36 37 38 39 40 41 42 43 44 45 46 47 48 49 50
000
AXUS43 KLBF 211310
MISLBF


WESTERN AND NORTH CENTRAL NEBRASKA HOURLY WEATHER ROUNDUP
NATIONAL WEATHER SERVICE NORTH PLATTE NE
700 AM CST TUE FEB 21 2017

NOTE: "FAIR" INDICATES FEW OR NO CLOUDS BELOW 12,000 FEET WITH NO
SIGNIFICANT WEATHER AND/OR OBSTRUCTIONS TO VISIBILITY.

NOTE: STATIONS NOT REPORTING VARIABLES SUCH AS SKY/WEATHER OR
PRESSURE ARE PROVIDED BY RAWS AND APRS NETWORKS AND ARE NOT UNDER
NATIONAL WEATHER SERVICE QUALITY CONTROL.

...OBSERVATIONS IN AND NEAR THE EASTERN PANHANDLE OF NEBRASKA...

CITY           SKY/WX    TMP DP  RH WIND       PRES   REMARKS
PINE RIDGE     CLEAR     35  27  72 W6        29.86F WCI  30
CHADRON        CLEAR     33  26  75 S3        29.86S
ALLIANCE       CLEAR     32  23  69 SW8       29.90F WCI  25
SIDNEY         CLEAR     30  17  58 W7        29.98S WCI  23
CRESCENT LAKE    N/A     40  20  44 SW6         N/A
$$

...OBSERVATIONS IN NORTHERN NEBRASKA AND FAR SOUTHERN SOUTH DAKOTA...

CITY           SKY/WX    TMP DP  RH WIND       PRES   REMARKS
WINNER         FAIR      46  28  49 SW13      29.78F
VALENTINE      CLEAR     37  22  54 W9        29.84F WCI  30
THEDFORD       CLEAR     42  22  44 SW7       29.91S
AINSWORTH      CLEAR     42  24  48 SW13      29.85S
O`NEILL        CLEAR     38  30  73 SW10      29.88F WCI  31
ORD            CLEAR     33  27  78 CALM      29.93S
BROKEN BOW     CLEAR     42  23  46 SW3       29.93S
VALENTINE NWR    N/A     42  21  42 SW9         N/A
BUTTE            N/A     40  27  59 S7          N/A
HALSEY           N/A     44  17  33 SW6         N/A
CHAMBERS         N/A     39  27  62 W5          N/A
EWING            N/A     38  32  79 SW3         N/A
$$

...OBSERVATIONS IN SOUTHWEST NEBRASKA AND FAR NORTHEAST COLORADO...

CITY           SKY/WX    TMP DP  RH WIND       PRES   REMARKS
HOLYOKE        FAIR      34  21  60 W10       29.97S WCI  26
IMPERIAL       CLOUDY    34  18  52 SW6       29.97S WCI  29
OGALLALA       CLOUDY    29  21  72 W8        29.96S WCI  21
NORTH PLATTE   CLOUDY    26  20  77 CALM      29.97S
MCCOOK         CLOUDY    29  20  69 W7        29.99R WCI  22
LEXINGTON      CLOUDY    38  23  53 W10       29.97S WCI  32
STAPLETON        N/A     36  21  54 CALM        N/A
GOTHENBURG       N/A     41  20  42 W3          N/A
CALLAWAY         N/A     39  23  53 SW8         N/A  WCI  33
$$

...OBSERVATIONS IN CENTRAL LINCOLN COUNTY AREA...

CITY           SKY/WX    TMP DP  RH WIND       PRES   REMARKS
N.P. AIRPORT   CLOUDY    26  20  77 CALM      29.97S
N.P. DOWNTOWN    N/A     31  22  69 CALM        N/A
N.P. SOUTHEAST   N/A     32  20  62 CALM        N/A
N.P. HILLCREST   N/A     34  22  61 S3          N/A
$$

...SOME OBSERVATIONS FROM AROUND THE REGION...

CITY           SKY/WX    TMP DP  RH WIND       PRES   REMARKS
LARAMIE        CLEAR     39  27  62 W20G28    30.06R WCI  29
CHEYENNE       CLEAR     46  27  47 W28G37    30.02R
DENVER         CLOUDY    44  19  36 VRB3      30.04S
AKRON          CLOUDY    33  13  43 W13       30.01R WCI  24
SCOTTSBLUFF    CLOUDY    28  21  75 CALM      29.92F
RAPID CITY     CLEAR     46  31  55 E5        29.75F
BISMARCK       PTCLDY    32  28  85 SW6       29.68R WCI  26
PIERRE         CLEAR     40  30  67 W9        29.74S WCI  34
SIOUX FALLS    PTCLDY    40  34  79 S10       29.86F WCI  33
OMAHA          FOG       34  30  85 SE5       30.00R VSB 1   WCI  30
GRAND ISLAND   CLEAR     41  34  76 SW10      29.98R
KANSAS CITY    CLOUDY    44  41  89 N9        29.96R
WICHITA        PTCLDY    39  36  89 NW9       30.01R WCI  33
OKLAHOMA CITY  CLEAR     46  42  86 NW12      29.99R
DALLAS         PTCLDY    52  47  83 NW10      29.93R
AMARILLO       CLOUDY    33  22  63 SW5       30.11R WCI  29
DODGE CITY     CLOUDY    33  21  61 SW8       30.06R WCI  26
HAYS           CLOUDY    28  26  92 W3        30.04S
GOODLAND       CLOUDY    41  13  31 SW12      29.98S
$$




USA.gov is the U.S. government's official web portal to all federal, state and local government web resources and services.